GFSSW_500_spd_273.txt.gz
Wind_Speed
24 22 21 19 19 20 20 19 17 15 13 10 7 6 5 4 4 3 7 11 15 14 16 15 15 16 18 26 26 29 28 18 21 22 22 21 23 21 24 26 22 21 17 15 13
25 23 22 20 19 19 21 21 19 17 15 13 10 7 6 4 3 4 6 8 9 15 15 11 12 15 21 26 31 31 22 25 21 25 23 27 23 22 24 23 22 21 20 16 14
25 24 24 23 21 20 21 22 22 20 18 16 13 10 8 5 3 3 5 5 7 10 9 8 10 16 22 27 28 28 22 29 21 24 22 30 26 26 24 22 26 22 21 20 18
26 26 26 25 23 22 22 22 23 23 21 19 17 14 11 9 9 5 5 5 5 6 6 1 7 11 18 24 27 21 23 28 28 28 24 28 29 26 24 22 22 22 22 18 16
25 25 26 26 25 24 23 22 22 22 23 21 20 17 15 11 10 6 4 4 4 3 2 2 4 9 13 22 24 20 25 28 27 24 22 26 29 27 28 24 24 24 21 19 16
25 26 27 27 27 27 26 25 23 22 22 22 22 20 17 14 13 11 9 7 6 5 4 3 3 4 11 15 17 13 16 21 27 25 23 23 26 26 26 27 30 29 22 18 14
26 27 27 28 28 28 28 27 26 25 24 23 23 23 21 19 17 13 12 9 8 7 4 3 6 6 8 11 10 12 14 17 25 28 25 22 20 23 26 26 29 28 24 18 9
27 27 29 29 29 28 28 27 27 27 27 26 24 23 25 21 19 17 15 13 11 8 7 4 4 8 5 4 4 6 11 17 18 23 25 20 19 21 20 23 26 29 25 24 13
28 28 28 29 30 30 30 28 27 26 26 25 25 25 27 24 24 23 19 17 13 12 10 9 7 9 6 2 8 8 11 10 9 19 21 21 17 16 19 23 26 29 19 23 22
30 29 28 28 29 30 30 30 29 28 27 26 26 26 28 25 29 27 26 22 17 16 15 16 13 11 8 8 9 5 2 3 9 8 17 19 17 14 16 21 24 23 17 19 15
32 31 30 28 28 29 29 29 29 28 28 28 27 26 26 24 29 26 26 27 24 20 19 20 17 15 14 11 11 11 6 1 8 6 9 13 13 15 16 19 24 22 22 29 29
35 33 31 31 30 30 29 28 28 26 27 27 28 27 29 28 28 28 27 24 24 21 22 22 17 22 20 13 13 14 8 2 4 6 9 8 10 12 16 18 21 23 15 23 27
36 35 34 32 33 32 31 29 28 27 27 27 27 29 30 28 29 29 27 26 24 24 23 21 18 33 26 17 22 18 8 3 1 5 8 12 12 14 16 20 27 24 18 15 17
36 36 36 34 34 34 33 31 29 29 27 28 26 30 27 26 26 31 28 29 28 25 25 21 31 32 30 20 23 17 8 4 6 7 6 14 16 18 20 21 28 25 15 12 15
33 34 36 36 35 35 35 33 31 30 27 28 28 28 23 24 26 30 29 32 27 26 31 22 31 31 31 21 23 17 11 9 8 17 8 14 20 23 24 23 25 25 14 18 15
29 30 33 35 36 36 36 35 34 30 28 27 28 28 27 23 26 31 31 30 30 33 31 27 34 32 31 30 28 23 19 18 9 15 18 17 20 17 21 21 26 24 18 18 22
28 29 30 33 35 36 37 37 34 32 30 30 31 31 31 28 29 29 30 32 32 33 31 30 36 33 32 31 29 25 17 16 14 15 17 25 23 20 21 21 24 24 23 26 25
25 27 30 31 31 34 36 36 35 29 30 31 32 31 30 31 29 28 30 30 31 32 31 31 34 31 33 33 32 30 22 15 17 13 10 19 23 18 21 19 15 20 28 30 29
28 25 26 28 28 31 32 34 33 29 31 31 32 30 32 32 33 32 32 29 30 29 31 29 29 33 37 38 37 32 28 18 15 21 19 21 19 18 15 17 15 17 28 25 28
27 30 29 26 26 27 28 29 28 27 30 31 34 30 31 35 36 37 33 28 29 30 29 28 27 31 42 43 39 35 30 25 21 22 22 21 24 20 17 13 15 17 26 32 35
27 30 32 31 29 28 27 27 23 31 35 33 36 33 32 34 35 39 34 26 28 29 30 29 30 32 39 45 37 37 37 26 23 24 23 22 23 20 15 15 16 23 31 27 25
28 30 30 34 33 30 26 23 30 37 39 37 33 27 32 35 38 39 35 30 25 29 30 26 29 34 38 42 39 40 35 32 31 27 21 23 26 22 16 17 19 27 24 12 12
29 29 31 32 32 29 28 28 32 40 43 42 37 31 30 36 34 37 32 27 26 28 30 25 31 33 40 44 37 36 36 34 29 29 31 28 28 18 19 20 23 20 15 16 13
29 28 31 28 30 30 32 32 35 39 48 45 40 35 32 33 33 30 25 27 29 28 23 14 24 30 41 43 37 36 33 24 30 26 24 23 19 21 22 19 18 20 15 23 20
25 25 25 24 25 27 30 33 32 40 48 52 47 40 38 36 33 25 26 27 29 26 21 21 20 29 34 37 37 34 33 28 24 24 21 18 19 25 25 19 15 14 22 25 18
19 20 20 23 27 31 32 34 34 41 45 53 50 44 41 37 34 25 29 34 29 23 23 21 22 27 35 38 34 31 34 36 30 27 29 26 24 26 25 26 23 20 25 19 17
16 16 23 29 30 31 30 33 34 37 43 50 54 55 46 39 37 26 33 32 31 27 24 24 21 24 34 35 35 37 35 34 28 31 28 27 27 27 28 29 28 26 25 22 19

GFSSW_500_spd_276.txt.gz
Wind_Speed
25 23 22 21 20 21 20 18 16 13 11 8 5 4 2 2 1 1 3 4 7 9 7 9 15 20 24 31 31 27 27 25 26 28 27 26 28 25 26 28 27 21 18 14 12
26 24 23 22 21 21 22 21 19 17 14 11 8 5 3 1 1 3 1 3 5 6 6 3 14 21 28 31 29 29 23 22 25 27 28 27 27 24 25 27 27 24 24 20 15
26 25 24 22 22 21 23 23 21 19 17 14 11 8 6 4 2 1 1 1 2 3 2 5 13 21 25 28 29 29 28 24 26 29 28 29 28 28 27 29 26 23 22 22 20
26 26 25 24 23 22 22 24 24 22 20 18 15 12 10 9 4 1 1 1 1 3 3 4 9 19 23 27 31 28 21 19 23 26 28 25 26 29 30 29 26 24 21 19 20
25 27 27 27 26 24 23 23 24 25 23 22 19 16 13 12 8 4 2 2 2 3 6 7 6 12 22 26 28 28 24 21 21 25 26 26 27 28 31 32 31 27 21 16 18
24 25 27 28 28 27 26 25 24 24 25 24 22 20 16 15 13 9 7 5 4 1 4 6 6 7 16 21 26 25 23 21 23 25 26 26 28 29 30 31 33 33 25 13 14
26 26 26 27 28 29 29 28 26 25 25 25 26 24 21 20 17 13 12 10 7 4 4 5 5 2 6 21 22 23 26 27 25 22 21 21 23 25 29 32 31 32 36 15 13
28 28 28 28 28 29 30 28 28 28 27 25 25 25 26 21 21 20 16 14 11 8 5 3 4 4 2 12 17 20 20 22 23 20 19 17 20 22 25 28 29 30 36 21 16
30 29 29 29 29 29 29 29 29 29 28 28 27 25 28 26 26 23 20 16 14 12 9 7 5 5 4 5 8 13 13 18 18 18 17 14 16 16 19 23 27 31 24 23 18
33 31 30 30 30 30 30 29 28 27 27 26 28 29 30 26 27 25 25 22 18 16 15 13 10 8 8 6 6 7 13 13 13 13 15 13 13 14 15 19 24 29 18 24 30
35 34 32 31 30 30 30 30 30 29 29 28 27 27 27 26 29 27 26 24 21 19 18 16 14 11 13 12 10 5 3 8 8 6 7 11 9 10 13 16 21 26 29 23 24
37 36 34 32 32 31 29 30 31 31 32 31 29 27 28 29 30 29 27 25 23 21 21 18 15 16 19 16 14 9 5 0 3 2 1 5 9 7 12 15 18 22 21 21 16
39 38 36 34 33 33 30 29 30 31 30 30 29 29 30 28 30 32 28 26 24 23 22 20 18 23 24 20 16 14 9 9 8 9 1 1 7 9 14 20 19 22 14 15 17
35 39 38 36 35 34 33 31 31 31 29 30 29 29 31 29 28 34 31 30 28 25 23 23 22 27 29 25 17 19 21 15 13 10 3 4 6 11 16 18 15 19 16 13 21
27 33 38 38 38 36 35 33 32 32 29 31 30 29 28 28 28 34 34 34 30 30 30 23 23 28 32 29 24 25 22 19 15 10 8 5 9 10 13 15 15 16 17 18 21
25 28 32 36 38 37 37 35 34 34 32 31 31 31 30 28 30 34 33 34 34 35 33 31 29 30 32 29 28 26 24 22 19 15 11 9 14 16 17 17 15 14 11 20 23
24 26 30 32 34 36 38 36 35 35 32 33 32 31 30 31 32 33 32 33 35 35 32 31 30 30 29 27 28 28 25 23 21 19 13 11 16 20 18 17 18 14 14 20 30
26 24 29 31 31 33 36 36 36 33 33 30 32 31 29 31 33 34 33 33 33 34 32 35 31 30 30 30 33 32 29 26 23 22 16 14 14 16 20 14 18 14 18 25 23
27 26 28 30 32 33 34 35 33 33 32 29 31 30 29 27 31 33 33 33 32 32 31 33 30 32 33 36 37 35 35 28 27 22 18 18 17 16 18 19 21 23 20 26 14
27 27 32 28 29 32 33 32 33 33 32 32 31 31 31 32 31 32 33 32 30 29 30 32 30 32 37 40 38 39 34 30 26 26 21 20 23 20 20 19 20 22 23 17 10
30 29 31 32 31 29 30 31 30 30 33 33 33 33 33 34 34 34 33 31 32 31 32 32 32 30 34 42 40 41 40 36 34 29 24 20 23 18 18 18 22 22 17 7 7
31 32 31 32 35 32 29 27 26 29 32 32 35 36 36 35 34 34 31 31 32 32 34 32 34 31 34 40 43 45 43 41 39 33 27 22 17 17 16 21 25 20 16 11 14
30 31 32 31 34 35 31 27 26 27 30 32 35 37 39 39 34 34 31 28 33 37 37 33 36 33 34 37 44 46 44 43 36 37 33 29 26 20 19 24 24 15 14 13 21
23 25 28 26 29 31 33 29 27 29 31 35 38 39 38 37 37 37 31 27 34 40 34 33 36 36 36 34 37 42 43 43 38 34 33 31 30 17 15 16 21 19 16 15 19
14 18 20 21 24 28 30 29 30 32 34 38 39 42 39 35 33 32 28 26 34 31 29 34 35 34 30 35 37 40 41 39 37 34 26 29 21 16 17 18 20 20 17 18 25
10 13 18 19 23 24 26 29 33 35 37 38 40 45 43 35 31 25 26 25 31 32 34 33 32 26 31 35 39 41 40 33 33 33 28 24 23 20 22 22 19 19 18 23 24
9 11 16 19 22 26 27 29 33 35 35 38 38 47 47 38 30 26 23 24 28 32 34 32 27 23 29 32 40 41 40 35 35 30 28 29 23 23 27 24 18 21 26 22 26

GFSSW_500_spd_279.txt.gz
Wind_Speed
25 24 23 21 20 20 18 17 15 12 9 6 5 3 2 1 2 3 4 5 6 13 11 12 14 19 23 26 25 25 28 26 25 29 27 26 28 26 26 26 25 25 23 17 12
27 26 24 23 22 22 22 20 18 15 13 10 7 5 3 1 2 3 3 3 6 9 8 10 14 19 22 25 25 28 28 25 24 27 28 25 27 26 26 26 24 20 22 21 14
27 27 25 24 24 23 24 23 21 19 16 13 10 8 5 2 3 4 4 6 6 6 5 8 9 17 21 22 24 25 27 24 22 24 27 26 24 24 24 24 23 20 20 21 17
27 27 26 25 25 24 24 25 24 22 19 16 14 12 9 5 3 3 3 5 4 7 6 7 9 17 21 20 21 21 25 23 24 23 26 29 29 31 30 31 30 20 17 18 20
25 27 27 26 25 25 25 25 26 25 23 20 18 15 13 9 6 4 3 4 4 6 10 8 8 16 19 19 21 23 22 23 25 25 27 29 33 33 33 36 33 24 15 18 19
22 26 27 27 27 26 26 25 26 27 25 23 20 18 16 13 12 9 7 5 3 4 11 10 10 10 16 16 17 20 23 23 23 23 23 26 28 29 31 32 35 35 23 21 18
24 24 25 28 29 28 28 28 26 25 27 26 24 21 21 18 15 13 12 9 6 4 7 9 10 11 11 14 14 20 20 21 19 19 19 21 22 25 32 34 32 27 31 24 20
28 27 26 27 28 29 29 29 28 26 26 27 27 26 25 22 20 17 14 11 9 7 5 7 7 12 16 14 17 16 17 19 18 16 15 15 15 18 25 30 31 27 28 29 18
32 30 29 28 28 28 28 29 29 29 28 26 26 27 28 25 25 20 17 14 13 12 9 7 6 9 13 15 16 13 13 14 13 12 14 14 13 12 19 25 25 29 28 26 21
35 33 32 31 30 29 28 29 30 30 30 29 28 28 29 27 27 24 22 18 17 15 14 11 10 8 10 13 14 12 13 11 11 10 11 11 11 12 16 21 23 24 26 21 22
37 36 34 33 32 30 29 29 30 30 30 31 31 32 29 27 29 27 25 21 19 17 16 14 14 10 11 11 12 13 14 10 10 7 7 5 7 12 16 17 20 20 23 17 21
38 39 37 36 35 32 30 30 31 31 30 30 30 30 32 31 32 31 28 25 22 21 19 17 14 16 15 14 11 12 12 10 8 6 3 2 7 14 15 14 15 20 26 14 18
33 39 40 38 37 34 32 31 30 31 30 30 30 30 31 31 33 33 30 27 25 24 22 19 18 19 19 18 15 14 12 9 7 8 4 1 3 7 12 11 14 18 21 17 17
23 32 40 40 40 36 33 33 31 30 29 31 31 31 33 32 32 35 32 30 28 26 25 22 22 21 24 22 20 18 15 14 12 11 9 9 3 6 8 9 10 15 15 15 18
23 24 31 40 41 39 35 33 32 31 28 31 31 30 33 33 32 36 35 32 30 29 26 23 24 22 24 24 26 22 18 20 18 14 13 9 9 4 7 11 12 13 10 12 13
22 23 25 30 39 40 38 35 33 33 32 30 30 31 31 31 32 36 37 34 33 34 30 31 27 25 23 29 30 27 20 24 20 18 14 14 14 9 10 12 13 12 9 16 21
24 23 25 25 30 36 38 37 35 34 34 33 30 31 31 30 31 35 36 36 36 35 34 33 31 28 29 27 26 29 22 26 21 19 16 18 17 13 11 11 9 10 14 24 23
22 23 26 25 27 30 34 37 36 35 34 34 34 32 31 32 34 35 36 36 37 37 36 36 34 31 30 29 28 33 28 29 23 20 21 23 16 11 9 9 10 16 20 22 15
23 23 27 26 26 30 31 33 33 34 32 32 34 33 34 31 34 36 36 35 37 36 36 36 36 34 32 31 30 31 31 30 30 30 27 25 19 16 11 12 16 17 17 20 9
22 23 27 28 27 29 30 31 31 31 31 31 32 35 33 33 32 35 35 34 33 33 34 35 34 34 35 34 33 33 32 34 34 32 27 25 24 19 18 17 18 20 18 13 11
19 22 27 29 30 31 29 30 31 32 32 32 32 34 34 33 34 34 34 33 30 30 32 33 33 33 35 36 34 33 38 38 35 35 26 25 25 19 17 10 14 20 15 9 15
20 22 25 30 30 31 28 27 31 32 32 32 32 34 35 34 33 34 33 30 29 30 32 32 34 34 34 35 35 36 40 44 39 37 35 33 26 19 18 13 15 19 15 16 15
21 22 24 31 31 31 31 30 28 26 27 30 33 35 36 36 33 33 32 29 28 29 33 33 35 36 37 39 39 39 42 42 39 40 40 37 31 25 24 22 12 14 18 17 11
17 17 19 27 29 29 29 30 26 25 25 27 33 36 37 37 35 33 29 25 23 23 31 34 36 36 39 36 36 36 36 42 41 43 37 34 29 26 24 19 12 13 17 13 13
15 11 12 16 20 22 25 28 28 26 27 28 32 36 36 37 37 35 32 26 22 21 24 33 35 37 36 36 36 36 35 40 40 38 37 30 29 21 25 19 19 18 18 13 16
11 7 7 12 14 18 21 23 29 29 30 30 31 34 36 36 36 30 25 26 25 21 26 35 36 35 33 34 34 36 34 37 36 34 34 32 26 21 19 21 21 16 16 16 21
11 6 7 12 15 17 20 24 28 31 32 33 32 33 37 37 36 30 22 23 24 23 27 34 33 31 29 28 30 38 37 35 30 29 27 25 20 20 22 23 23 20 19 22 23

GFSSW_500_spd_282.txt.gz
Wind_Speed
25 24 22 21 19 18 16 14 11 9 7 5 5 5 5 4 7 7 7 6 7 13 14 14 12 15 19 22 23 25 22 22 21 22 21 22 24 23 21 20 21 21 19 13 11
26 26 25 23 22 21 20 18 16 13 10 8 5 4 5 4 5 7 7 7 8 11 10 12 14 14 18 21 22 29 23 20 18 18 25 25 26 22 22 19 18 19 19 16 12
26 27 26 25 24 23 23 21 19 17 14 11 9 6 4 5 4 6 9 11 10 10 8 9 13 13 16 17 19 23 23 20 19 18 26 31 30 24 23 20 20 18 21 21 18
27 27 27 27 26 25 24 24 23 21 18 16 14 11 7 5 4 5 9 12 12 10 8 6 11 15 14 17 16 21 19 21 20 21 25 30 31 34 30 28 28 21 20 22 21
23 28 29 28 27 26 25 25 25 24 22 19 18 15 12 9 7 5 7 12 12 10 9 6 6 11 12 13 14 18 17 21 22 23 25 26 29 31 30 32 26 25 21 20 20
20 25 30 30 29 27 27 26 27 27 26 24 22 19 16 13 11 8 7 10 15 10 11 10 7 8 10 8 11 12 16 17 19 20 21 24 27 27 27 27 30 27 23 19 19
24 23 25 30 30 29 28 28 27 28 28 27 25 23 21 16 15 13 11 9 13 14 12 11 11 9 9 8 9 8 8 10 13 14 17 19 22 23 23 26 26 26 29 22 19
28 27 25 26 30 30 30 30 29 28 28 29 27 26 25 21 18 16 13 11 11 14 13 12 15 12 11 9 8 6 5 6 5 9 12 14 16 19 20 21 24 28 27 27 20
33 31 29 28 27 28 31 31 30 30 28 28 30 30 28 24 22 18 16 14 13 13 15 14 17 17 13 13 6 4 2 3 6 7 10 10 11 14 17 20 22 28 22 24 20
37 36 34 32 29 28 28 30 31 32 31 28 28 30 31 27 26 21 19 18 16 15 14 14 15 20 17 13 6 9 4 5 6 6 7 7 11 15 16 18 22 27 19 17 17
34 39 37 35 33 30 29 29 30 32 33 33 31 32 28 28 29 26 23 21 19 17 16 16 15 15 16 22 16 16 13 10 6 6 3 4 9 13 15 16 20 23 21 17 16
28 34 40 39 36 33 32 31 30 31 32 34 34 34 32 31 30 30 26 23 21 19 20 18 16 15 17 19 18 17 17 13 9 5 1 3 6 8 12 13 17 19 18 16 14
23 26 36 42 40 36 34 33 31 29 31 33 33 35 35 34 33 32 30 26 24 24 20 19 17 23 18 17 17 18 17 16 12 9 5 1 5 6 7 11 14 18 18 14 13
23 23 25 37 42 39 36 34 32 30 29 32 34 34 35 34 36 36 34 31 29 26 26 25 28 22 22 18 17 13 21 15 13 8 5 8 6 14 7 8 15 16 18 17 17
24 23 23 26 37 41 38 35 33 31 29 33 33 34 35 35 34 35 36 33 31 29 27 25 28 25 25 18 21 18 22 16 15 11 9 11 6 12 14 9 11 13 16 17 23
22 24 23 22 27 37 40 38 34 32 34 32 31 33 34 36 35 35 37 35 35 32 29 33 30 29 24 22 25 25 20 18 17 16 10 13 11 6 12 11 9 11 14 22 27
22 22 25 22 23 27 37 39 35 34 34 34 31 32 32 34 35 37 39 37 36 34 33 35 30 31 27 25 25 22 22 17 15 14 12 12 13 9 14 10 9 8 15 21 25
21 22 23 23 22 24 27 35 39 38 35 33 33 31 31 33 34 36 39 40 41 37 36 36 35 30 28 28 25 23 22 21 18 18 14 19 10 11 17 8 11 12 13 20 15
16 20 24 21 24 24 25 28 33 37 36 33 33 32 32 32 34 35 36 38 39 37 38 38 35 34 32 29 31 28 27 20 21 21 19 12 16 13 15 13 14 15 17 17 9
12 15 21 23 24 26 26 29 29 33 33 34 33 35 33 36 33 34 37 37 37 36 37 40 37 38 34 34 34 31 24 26 25 22 19 15 17 12 18 14 14 10 15 12 6
14 15 16 22 25 27 27 27 29 31 32 32 33 34 36 34 35 33 36 37 34 33 35 38 35 40 39 36 36 35 31 30 21 23 21 16 15 13 17 14 9 12 11 9 11
15 15 17 21 23 26 28 29 30 33 33 33 33 34 35 34 34 33 35 35 33 33 33 32 32 37 35 37 39 37 31 27 28 26 26 23 20 20 22 17 15 17 15 9 16
17 16 14 17 22 26 29 30 32 32 34 34 33 34 34 33 33 33 34 33 31 30 32 32 34 35 36 36 40 39 35 34 27 24 24 23 16 21 24 21 20 19 17 14 14
19 17 16 17 19 26 29 30 30 28 28 30 32 33 35 35 33 32 32 31 29 30 30 32 33 33 28 28 29 37 37 35 30 28 24 26 22 23 26 24 18 17 20 16 15
18 18 16 13 14 18 24 25 27 28 28 27 30 34 35 35 34 34 31 29 25 24 27 30 29 32 32 32 36 34 35 33 35 32 29 21 24 20 25 21 19 20 19 16 15
18 15 14 10 8 13 17 21 24 29 28 27 30 32 33 35 36 37 34 30 29 23 22 24 25 28 30 32 35 37 37 36 35 34 32 31 28 22 23 15 18 20 19 18 18
15 15 11 9 8 12 16 19 21 26 28 29 30 30 32 35 36 32 31 30 28 26 24 25 25 26 27 26 32 38 38 36 33 33 30 24 22 23 16 18 19 23 25 22 22

GFSSW_500_spd_285.txt.gz
Wind_Speed
24 23 22 20 18 17 15 14 11 8 6 7 7 7 7 8 8 9 10 8 9 12 12 13 15 16 17 25 30 29 7 14 17 15 18 18 18 16 16 18 21 17 15 9 9
24 25 24 22 21 19 18 17 15 12 9 7 7 7 6 7 7 9 12 10 9 11 12 11 13 15 17 16 25 7 10 14 17 15 20 25 24 18 20 19 21 20 18 14 9
25 27 26 24 23 22 21 19 17 16 13 10 7 7 6 7 9 9 11 11 9 10 12 9 10 14 6 10 9 10 12 14 16 18 20 28 31 32 28 25 20 20 19 16 11
23 26 27 27 25 24 23 22 20 18 16 14 11 9 7 6 6 9 11 12 10 10 12 10 13 12 9 1 12 4 13 14 15 17 23 24 30 30 30 27 21 18 20 22 16
19 25 27 28 27 26 25 23 23 22 20 18 15 12 10 8 8 8 11 13 12 10 11 10 13 18 4 3 8 2 10 11 12 14 17 21 25 24 26 26 29 19 19 19 20
20 21 27 29 29 28 26 26 25 26 24 22 19 16 14 11 10 10 10 13 13 11 12 11 11 10 8 8 3 8 7 8 9 11 15 18 20 23 26 27 27 26 22 20 16
24 23 23 28 30 30 29 28 27 27 27 26 24 21 19 12 13 12 11 11 12 13 12 11 10 11 8 4 3 5 9 10 5 8 9 3 20 21 23 24 23 26 21 23 21
29 27 25 25 29 31 31 31 29 28 29 29 29 27 22 20 17 16 14 13 13 13 12 11 11 6 9 7 6 6 10 5 6 4 7 11 14 16 20 24 19 20 18 16 20
34 32 30 28 26 29 32 32 31 30 29 30 31 31 28 23 22 19 17 16 16 14 13 13 13 10 6 5 4 8 11 1 11 2 5 8 6 12 16 20 24 14 16 16 16
32 37 34 32 29 28 29 32 33 33 32 30 31 32 32 29 24 22 20 18 17 18 16 14 15 10 4 4 14 8 5 8 2 7 2 5 6 11 13 15 21 17 13 12 14
21 33 38 37 34 31 30 30 32 35 34 35 33 34 29 28 28 26 24 22 22 22 20 17 19 13 10 10 16 7 10 8 8 6 4 7 5 8 11 13 17 18 11 14 19
20 19 31 39 39 35 33 32 31 32 34 36 35 35 30 30 29 28 26 24 23 21 22 21 20 15 14 22 24 10 8 6 12 10 9 6 9 7 11 10 11 14 16 17 21
22 21 19 27 37 40 37 34 32 31 32 35 36 36 36 32 30 30 28 25 24 25 23 22 19 18 17 22 19 12 9 11 16 10 9 8 21 23 5 8 11 10 16 18 23
21 22 22 21 25 37 41 37 34 32 31 34 35 38 36 35 35 34 29 28 28 26 24 24 23 19 23 21 17 12 16 20 18 11 14 17 17 22 8 11 17 11 11 16 26
21 21 22 23 22 26 36 39 35 33 27 37 34 34 36 35 39 37 33 33 29 26 28 25 27 25 26 22 18 19 21 27 21 15 12 12 15 13 23 2 19 11 10 17 23
19 22 22 23 22 21 27 35 35 32 26 37 33 33 35 36 36 39 37 36 31 31 32 28 22 27 27 24 21 20 23 19 17 15 15 20 5 9 26 4 15 10 10 16 23
19 21 22 22 23 22 21 29 32 31 34 36 31 32 32 36 38 38 35 38 35 33 32 29 35 28 30 28 25 23 20 18 14 14 19 20 14 13 15 11 10 7 10 14 24
17 19 22 22 22 23 22 24 32 30 27 40 32 29 30 33 36 38 37 39 37 35 27 28 31 32 30 28 23 23 21 21 18 13 30 20 8 19 25 20 12 9 11 16 19
13 16 17 20 22 23 23 23 21 23 38 36 32 29 30 33 35 37 37 38 37 37 32 24 26 21 28 28 27 21 25 20 23 21 28 28 21 7 20 18 9 9 10 13 16
12 13 13 16 21 23 24 23 25 35 36 35 29 31 19 32 32 35 35 35 37 38 38 27 23 26 26 29 33 30 20 19 22 24 25 15 20 20 29 30 14 8 7 11 11
13 14 15 15 17 22 22 23 29 27 30 33 34 36 32 25 33 25 31 33 35 36 33 36 26 22 29 29 28 29 30 26 18 22 20 20 21 31 19 4 12 5 7 9 12
16 14 13 15 16 19 23 25 33 30 30 32 35 37 38 37 32 30 19 26 34 35 31 33 29 28 29 23 27 25 27 27 24 23 21 24 32 28 20 5 15 17 11 12 14
18 17 14 12 13 16 24 28 29 32 32 32 32 35 38 37 34 34 24 24 41 30 33 31 36 28 25 25 23 29 25 25 25 22 25 21 15 28 28 33 24 20 18 16 16
17 17 16 13 12 14 20 26 30 32 33 35 34 34 35 35 33 35 36 35 34 30 33 33 30 28 26 23 23 27 29 31 26 25 25 23 26 25 30 34 27 26 20 18 18
15 15 16 15 14 14 16 23 28 30 29 34 34 35 34 32 30 27 32 24 30 30 29 31 31 29 24 25 22 27 30 29 32 28 30 22 23 24 29 30 30 31 20 19 18
14 14 15 15 15 13 11 15 20 19 28 26 30 33 36 38 27 21 20 23 15 28 28 30 30 25 25 25 28 25 25 23 27 28 29 28 28 20 25 36 28 25 17 18 20
13 13 13 14 13 12 13 14 19 21 27 32 30 39 40 37 41 41 38 35 32 25 22 21 24 23 25 23 24 34 31 26 27 24 28 26 22 23 27 38 34 29 19 21 24

GFSSW_500_spd_288.txt.gz
Wind_Speed
18 19 18 17 16 14 12 10 8 6 7 8 9 7 7 8 9 12 12 10 12 11 11 15 19 17 29 22 17 16 3 5 12 18 22 23 17 18 17 19 18 16 12 10 8
20 21 21 20 18 17 16 14 12 9 7 7 7 7 6 6 9 9 13 10 12 13 15 6 18 27 23 13 18 6 4 11 13 18 26 24 16 20 22 18 16 16 13 10 7
21 22 23 23 22 20 19 17 15 13 11 9 8 7 6 7 8 9 12 11 12 15 18 17 27 28 16 9 2 4 10 7 10 12 18 22 30 29 26 19 16 18 16 10 11
16 23 25 26 24 23 21 20 19 17 15 12 10 8 7 6 7 8 9 11 12 15 16 18 32 20 7 6 8 7 9 4 6 12 16 25 25 23 24 17 16 15 20 19 16
17 19 25 27 26 25 24 23 22 21 19 16 14 12 10 8 8 8 8 11 11 14 15 9 25 14 9 6 3 11 8 4 8 12 16 21 23 23 23 21 18 16 17 18 19
21 20 20 27 28 28 27 25 24 24 23 20 17 15 14 10 9 9 10 9 10 13 14 10 23 23 15 8 8 7 6 4 8 11 15 15 17 23 19 21 16 20 19 15 16
24 23 21 22 28 30 30 28 27 26 26 24 21 19 17 11 13 11 10 9 10 12 13 14 16 21 18 7 11 4 14 5 5 9 9 10 12 20 21 16 18 14 19 20 18
29 27 25 24 24 29 31 31 29 28 27 27 26 24 20 16 15 15 13 12 10 10 10 5 11 8 20 9 11 8 21 16 16 16 9 6 9 16 17 18 13 16 20 22 23
31 32 30 28 26 25 29 32 32 30 29 29 28 27 26 21 19 18 17 15 13 12 11 9 9 10 13 4 5 16 17 10 10 20 17 16 13 14 12 15 11 13 20 23 21
24 31 34 32 30 28 27 29 32 33 32 31 31 29 28 26 27 20 19 19 16 16 13 12 11 9 12 5 21 20 18 20 12 13 10 16 11 11 10 9 10 11 16 18 20
19 18 28 34 35 31 30 29 30 34 34 32 35 31 32 29 20 26 23 23 22 21 16 15 15 10 10 7 19 8 15 20 4 15 10 3 9 13 12 11 12 9 12 12 15
20 20 19 23 34 37 34 32 31 31 31 34 35 32 36 24 26 28 26 24 25 21 20 21 16 10 7 12 11 12 7 9 16 15 6 16 18 24 20 11 11 11 11 14 18
21 20 21 20 20 31 37 35 34 32 30 33 34 34 35 30 28 30 30 27 26 26 26 24 15 14 15 13 20 17 9 17 23 7 15 21 22 23 14 13 15 13 13 15 20
22 21 20 22 21 19 27 34 36 34 32 31 31 32 37 34 32 30 28 29 29 30 29 27 19 20 23 17 17 15 10 21 15 19 15 26 25 29 8 10 5 6 11 15 19
19 21 20 21 22 21 19 24 32 35 28 33 35 34 33 32 31 34 29 30 30 28 29 27 26 23 24 18 21 20 15 21 20 22 20 14 31 30 9 15 7 6 6 13 18
16 16 19 20 21 21 21 19 24 31 26 30 38 31 33 30 33 37 35 33 29 29 31 29 23 26 25 24 25 21 19 22 21 20 20 24 25 28 29 10 18 7 6 11 13
17 19 19 19 20 21 21 20 18 27 22 23 34 32 32 30 33 33 36 35 35 34 34 30 28 21 26 24 27 24 19 19 20 18 21 33 33 34 52 13 9 12 6 8 8
14 17 17 19 21 22 21 20 19 13 15 19 24 30 29 27 32 32 39 33 35 33 31 28 27 30 26 28 24 23 23 22 23 19 29 33 32 37 26 20 5 15 15 9 13
12 13 15 17 18 21 22 21 14 18 20 23 29 31 27 24 25 30 37 34 34 33 33 25 24 19 23 23 26 23 25 19 25 24 27 29 33 34 21 20 8 14 19 16 14
14 14 13 13 15 19 21 18 23 25 33 39 34 9 14 17 23 25 26 29 32 33 32 27 23 19 19 27 25 29 19 19 21 21 24 22 29 38 41 7 5 3 12 13 12
17 15 14 12 13 14 17 18 22 25 33 33 32 19 20 12 20 23 23 22 19 26 29 32 27 23 18 31 26 21 27 28 23 23 21 20 31 38 33 27 36 12 6 11 11
16 17 15 12 11 13 15 19 26 24 31 27 27 35 32 20 19 16 13 23 20 20 22 27 30 30 23 23 26 24 24 23 27 24 22 20 23 31 34 31 24 10 3 14 17
13 15 15 15 9 10 11 18 29 32 32 25 26 30 35 33 34 27 19 17 29 25 30 24 29 31 27 25 28 26 26 26 23 22 22 17 26 35 35 42 13 10 19 19 19
13 13 12 12 11 8 10 13 19 27 28 30 32 33 33 36 40 33 24 17 31 39 34 36 31 26 30 24 22 27 27 23 27 25 21 21 23 34 42 41 30 13 15 20 23
14 13 12 11 12 9 10 12 12 15 20 30 31 33 36 35 36 21 27 18 21 34 30 29 34 29 26 26 24 23 26 27 27 29 30 26 23 19 25 27 13 20 30 25 23
16 14 12 12 11 10 12 12 11 11 22 26 31 27 25 34 29 17 28 21 22 18 21 29 32 34 29 25 28 25 24 27 27 26 34 36 32 22 25 28 33 33 33 24 22
15 13 12 13 13 13 13 14 13 16 16 20 28 23 31 23 34 40 35 31 30 27 9 23 28 29 32 21 25 28 30 25 25 24 22 25 29 33 25 35 39 33 31 30 29

GFSSW_500_spd_291.txt.gz
Wind_Speed
15 16 16 15 13 11 10 8 7 7 9 9 8 7 7 8 9 11 14 17 18 21 18 22 16 19 25 28 22 5 19 12 21 25 23 21 16 14 15 19 19 17 11 8 7
16 18 19 18 17 15 14 12 10 9 7 8 7 7 6 7 8 6 13 18 21 22 22 13 11 24 27 23 8 14 19 16 19 24 24 20 17 17 18 20 20 11 10 10 9
15 19 20 21 20 18 17 15 13 12 10 8 7 7 7 6 7 7 9 18 18 22 22 16 20 20 21 18 3 20 17 15 13 17 14 20 27 29 20 16 19 23 18 17 15
15 17 21 23 23 21 20 19 17 16 13 11 9 8 7 7 5 7 7 16 17 21 21 17 22 22 19 20 12 15 17 11 15 16 23 24 25 26 28 22 18 21 20 18 23
17 17 18 24 25 24 23 22 21 19 17 15 13 11 9 8 7 9 6 12 17 18 18 10 20 22 4 6 16 13 10 9 14 15 18 20 20 21 22 18 20 19 18 17 19
20 19 19 20 26 26 26 25 24 22 21 19 17 15 12 8 8 8 9 9 14 14 13 10 24 20 2 3 16 8 10 8 11 11 14 13 15 20 19 17 19 22 20 18 20
25 23 21 20 21 27 29 28 27 25 23 23 21 19 16 14 13 11 9 11 11 9 12 17 11 28 17 8 9 9 8 8 4 10 14 6 10 19 19 16 18 17 20 23 25
29 28 26 24 22 22 27 30 29 28 26 25 25 22 21 15 16 14 13 11 11 11 9 16 9 18 22 11 14 14 17 5 10 5 6 14 13 18 19 19 15 16 20 24 28
26 29 30 29 26 25 24 26 30 31 30 29 27 25 24 20 17 19 15 13 13 14 14 14 10 17 16 21 12 17 20 3 6 15 12 7 9 14 12 13 14 14 17 25 25
18 21 28 31 31 29 27 26 26 31 33 32 30 27 26 26 29 23 20 18 15 15 14 15 19 17 13 11 11 13 14 17 14 12 16 7 10 17 13 8 8 13 17 19 23
19 19 18 23 30 33 32 30 29 29 28 32 33 28 27 28 25 22 24 23 21 18 14 16 17 18 10 6 8 15 16 14 13 3 5 14 21 19 14 10 11 11 13 15 17
20 19 21 21 19 27 34 35 31 32 28 29 31 30 32 27 22 27 28 26 24 20 20 23 14 15 16 8 11 21 12 8 14 6 8 14 23 30 22 6 8 9 9 9 14
22 21 21 21 22 20 22 32 36 35 31 29 28 27 32 28 25 30 31 28 28 26 25 24 15 19 15 11 8 20 16 8 21 17 8 21 22 26 23 18 20 5 8 13 16
20 22 22 22 21 21 19 19 29 36 35 27 29 26 30 31 29 27 28 30 31 30 28 28 22 23 17 11 12 14 9 7 17 21 19 9 27 30 31 24 27 9 8 9 13
15 16 20 22 22 21 20 19 17 25 31 35 34 31 28 31 22 28 27 29 31 30 32 28 25 26 22 16 12 12 17 20 20 16 18 14 18 28 35 36 33 15 11 5 10
15 15 16 17 20 21 20 19 18 16 18 26 30 28 30 29 25 28 32 30 29 31 34 32 29 26 27 24 23 21 21 24 23 16 25 19 19 23 28 32 17 6 16 11 2
13 14 16 17 18 18 20 19 18 13 12 8 17 27 28 27 25 31 33 31 33 33 33 33 33 31 32 30 27 25 23 30 32 17 19 23 28 28 31 37 21 14 12 18 1
13 12 12 14 17 19 20 19 17 10 12 10 9 15 28 28 23 26 31 31 32 32 31 33 34 30 29 27 22 24 20 31 24 15 14 25 29 33 34 30 32 16 9 18 7
15 14 13 13 13 15 18 19 13 28 29 20 20 17 20 12 20 26 27 32 31 30 34 33 32 24 17 26 26 23 32 25 19 19 21 26 29 30 28 32 33 16 9 4 10
17 16 14 12 11 12 13 13 21 28 30 34 28 21 17 12 9 17 24 21 29 29 32 30 32 26 17 14 21 22 18 27 21 24 25 14 23 24 28 27 25 26 12 5 9
16 16 15 12 9 9 9 15 25 33 31 36 38 32 23 23 19 22 19 19 16 14 25 29 33 26 26 27 26 28 30 25 26 27 26 27 24 22 21 24 24 23 23 10 9
15 15 15 15 10 7 10 13 21 30 36 36 34 34 28 27 23 18 23 10 16 19 15 21 28 32 34 26 10 25 29 29 33 29 30 27 27 27 28 20 30 31 17 15 16
16 15 13 14 12 8 7 13 18 27 33 35 26 27 31 32 32 29 26 21 16 23 25 25 26 30 37 33 24 24 29 29 25 24 26 23 25 26 29 27 20 22 27 28 17
17 13 14 13 11 11 7 7 11 19 24 30 30 25 31 35 43 36 33 18 22 22 32 35 33 39 41 38 29 20 26 28 23 24 23 20 24 22 25 24 22 18 13 13 16
17 16 15 13 11 10 9 6 8 12 9 20 22 26 23 34 43 45 36 26 15 27 31 39 43 40 36 36 30 28 25 23 28 26 27 24 27 18 20 21 21 18 18 11 17
15 17 14 13 14 15 13 12 10 12 15 16 22 24 32 30 37 39 44 35 26 20 22 32 38 37 37 34 40 36 36 29 18 26 30 24 34 29 23 23 30 25 20 30 17
18 18 18 17 17 17 16 14 15 15 15 20 18 26 23 31 37 40 40 43 40 28 13 11 23 30 32 37 41 45 41 33 29 24 23 21 25 41 36 36 34 34 33 34 20